Time,TemperatureF,DewpointF,PressureIn,WindDirection,WindDirectionDegrees,WindSpeedMPH,WindSpeedGustMPH,Humidity,HourlyPrecipIn,Conditions,Clouds,dailyrainin,SoftwareType,DateUTC
2013-02-06 00:00:00,28.4,26.6,29.98,South,190,1.0,3.0,93,0.00,,---,0.00,VWS V13.01,2013-02-06 05:00:00,
2013-02-06 00:05:00,28.4,26.6,29.98,South,191,0.0,2.0,93,0.00,,---,0.00,VWS V13.01,2013-02-06 05:05:00,
2013-02-06 00:10:00,28.4,26.6,29.98,SSW,206,2.0,3.0,93,0.00,,---,0.00,VWS V13.01,2013-02-06 05:10:00,
2013-02-06 00:15:00,28.5,26.7,29.98,SW,214,3.0,4.0,93,0.00,,---,0.00,VWS V13.01,2013-02-06 05:15:00,
2013-02-06 00:20:00,28.4,26.6,29.98,SW,217,1.0,4.0,93,0.00,,---,0.00,VWS V13.01,2013-02-06 05:20:00,
2013-02-06 00:25:00,28.4,26.6,29.98,SW,217,0.0,4.0,93,0.00,,---,0.00,VWS V13.01,2013-02-06 05:25:00,
2013-02-06 00:30:00,28.4,26.6,29.98,SW,233,2.0,4.0,93,0.00,,---,0.00,VWS V13.01,2013-02-06 05:30:00,
2013-02-06 00:35:00,28.4,26.6,29.98,SW,217,4.0,4.0,93,0.00,,---,0.00,VWS V13.01,2013-02-06 05:35:00,
2013-02-06 00:40:00,28.4,26.6,29.99,SW,229,2.0,4.0,93,0.00,,---,0.00,VWS V13.01,2013-02-06 05:40:00,
2013-02-06 00:45:00,28.4,26.9,29.99,SW,230,2.0,5.0,94,0.00,,---,0.00,VWS V13.01,2013-02-06 05:45:00,
2013-02-06 00:50:00,28.4,26.9,29.99,WSW,238,3.0,5.0,94,0.00,,---,0.00,VWS V13.01,2013-02-06 05:50:00,
2013-02-06 00:55:00,28.5,27.0,29.99,SW,219,1.0,5.0,94,0.00,,---,0.00,VWS V13.01,2013-02-06 05:55:00,
2013-02-06 01:00:00,28.5,27.0,29.99,SW,220,2.0,3.0,94,0.00,,---,0.00,VWS V13.01,2013-02-06 06:00:00,
2013-02-06 01:05:00,28.5,27.0,29.99,SW,216,2.0,5.0,94,0.00,,---,0.00,VWS V13.01,2013-02-06 06:05:00,
2013-02-06 01:10:00,28.5,27.0,30.00,SW,217,2.0,5.0,94,0.00,,---,0.00,VWS V13.01,2013-02-06 06:10:00,
2013-02-06 01:15:00,28.5,27.0,30.00,SW,221,6.0,6.0,94,0.00,,---,0.00,VWS V13.01,2013-02-06 06:15:00,
2013-02-06 01:20:00,28.6,27.1,30.00,SW,219,3.0,8.0,94,0.00,,---,0.00,VWS V13.01,2013-02-06 06:20:00,
2013-02-06 01:25:00,28.6,27.1,30.00,SW,225,3.0,8.0,94,0.00,,---,0.00,VWS V13.01,2013-02-06 06:25:00,
2013-02-06 01:30:00,28.7,27.2,30.00,SW,229,5.0,5.0,94,0.00,,---,0.00,VWS V13.01,2013-02-06 06:30:00,
2013-02-06 01:35:00,28.7,26.9,30.00,SW,229,2.0,8.0,93,0.00,,---,0.00,VWS V13.01,2013-02-06 06:35:00,
2013-02-06 01:40:00,28.7,26.9,30.00,SSW,206,4.0,8.0,93,0.00,,---,0.00,VWS V13.01,2013-02-06 06:40:00,
2013-02-06 01:45:00,28.8,27.0,30.00,SW,225,3.0,8.0,93,0.00,,---,0.00,VWS V13.01,2013-02-06 06:45:00,
2013-02-06 01:50:00,28.8,27.0,30.00,WSW,242,3.0,8.0,93,0.00,,---,0.00,VWS V13.01,2013-02-06 06:50:00,
2013-02-06 01:55:00,28.8,27.0,30.01,SW,225,2.0,8.0,93,0.00,,---,0.00,VWS V13.01,2013-02-06 06:55:00,
2013-02-06 02:00:00,28.9,27.1,30.01,SW,217,2.0,6.0,93,0.00,,---,0.00,VWS V13.01,2013-02-06 07:00:00,
2013-02-06 02:05:00,28.9,26.9,30.01,SW,216,1.0,8.0,92,0.00,,---,0.00,VWS V13.01,2013-02-06 07:05:00,
2013-02-06 02:10:00,29.0,27.0,30.02,WSW,245,1.0,8.0,92,0.00,,---,0.00,VWS V13.01,2013-02-06 07:10:00,
2013-02-06 02:15:00,29.0,27.0,30.02,WSW,253,5.0,9.0,92,0.00,,---,0.00,VWS V13.01,2013-02-06 07:15:00,
2013-02-06 02:20:00,29.0,26.7,30.02,West,273,3.0,9.0,91,0.00,,---,0.00,VWS V13.01,2013-02-06 07:20:00,
2013-02-06 02:25:00,29.0,26.7,30.03,West,276,3.0,9.0,91,0.00,,---,0.00,VWS V13.01,2013-02-06 07:25:00,
2013-02-06 02:30:00,29.1,26.8,30.03,WNW,294,4.0,6.0,91,0.00,,---,0.00,VWS V13.01,2013-02-06 07:30:00,
2013-02-06 02:35:00,29.1,26.8,30.04,West,262,3.0,6.0,91,0.00,,---,0.00,VWS V13.01,2013-02-06 07:35:00,
2013-02-06 02:40:00,29.0,26.4,30.04,WNW,284,3.0,7.0,90,0.00,,---,0.00,VWS V13.01,2013-02-06 07:40:00,
2013-02-06 02:45:00,29.1,26.5,30.04,West,277,3.0,7.0,90,0.00,,---,0.00,VWS V13.01,2013-02-06 07:45:00,
2013-02-06 02:50:00,29.0,26.2,30.04,NW,304,6.0,7.0,89,0.00,,---,0.00,VWS V13.01,2013-02-06 07:50:00,
2013-02-06 02:55:00,29.1,26.3,30.04,WNW,296,3.0,8.0,89,0.00,,---,0.00,VWS V13.01,2013-02-06 07:55:00,
2013-02-06 03:00:00,29.0,26.2,30.04,West,260,3.0,5.0,89,0.00,,---,0.00,VWS V13.01,2013-02-06 08:00:00,
2013-02-06 03:05:00,29.1,26.0,30.04,West,266,0.0,5.0,88,0.00,,---,0.00,VWS V13.01,2013-02-06 08:05:00,
2013-02-06 03:10:00,29.0,25.9,30.05,West,259,4.0,5.0,88,0.00,,---,0.00,VWS V13.01,2013-02-06 08:10:00,
2013-02-06 03:15:00,29.0,25.9,30.05,WSW,240,2.0,5.0,88,0.00,,---,0.00,VWS V13.01,2013-02-06 08:15:00,
2013-02-06 03:20:00,29.0,25.9,30.05,West,272,2.0,5.0,88,0.00,,---,0.00,VWS V13.01,2013-02-06 08:20:00,
2013-02-06 03:25:00,29.0,25.9,30.06,WNW,286,5.0,7.0,88,0.00,,---,0.00,VWS V13.01,2013-02-06 08:25:00,
2013-02-06 03:30:00,29.1,26.0,30.06,WNW,298,4.0,7.0,88,0.00,,---,0.00,VWS V13.01,2013-02-06 08:30:00,
2013-02-06 03:35:00,29.1,26.3,30.07,WSW,250,2.0,7.0,89,0.00,,---,0.00,VWS V13.01,2013-02-06 08:35:00,
2013-02-06 03:40:00,29.1,26.3,30.07,SW,234,4.0,8.0,89,0.00,,---,0.00,VWS V13.01,2013-02-06 08:40:00,
2013-02-06 03:45:00,29.1,26.3,30.07,West,265,3.0,8.0,89,0.00,,---,0.00,VWS V13.01,2013-02-06 08:45:00,
2013-02-06 03:50:00,29.1,26.3,30.07,WSW,240,6.0,9.0,89,0.00,,---,0.00,VWS V13.01,2013-02-06 08:50:00,
2013-02-06 03:55:00,29.1,26.0,30.08,WSW,254,5.0,10.0,88,0.00,,---,0.00,VWS V13.01,2013-02-06 08:55:00,
2013-02-06 04:00:00,29.2,26.1,30.07,WSW,246,5.0,9.0,88,0.00,,---,0.00,VWS V13.01,2013-02-06 09:00:00,
2013-02-06 04:05:00,29.1,26.0,30.07,WSW,257,4.0,9.0,88,0.00,,---,0.00,VWS V13.01,2013-02-06 09:05:00,
2013-02-06 04:10:00,29.1,26.0,30.07,WSW,245,3.0,9.0,88,0.00,,---,0.00,VWS V13.01,2013-02-06 09:10:00,
2013-02-06 04:15:00,29.1,26.0,30.07,West,277,7.0,9.0,88,0.00,,---,0.00,VWS V13.01,2013-02-06 09:15:00,
2013-02-06 04:20:00,29.1,26.0,30.08,SW,231,5.0,9.0,88,0.00,,---,0.00,VWS V13.01,2013-02-06 09:20:00,
2013-02-06 04:25:00,29.1,26.0,30.07,WSW,242,6.0,9.0,88,0.00,,---,0.00,VWS V13.01,2013-02-06 09:25:00,
2013-02-06 04:30:00,29.1,25.7,30.07,WSW,250,5.0,6.0,87,0.00,,---,0.00,VWS V13.01,2013-02-06 09:30:00,
2013-02-06 04:35:00,29.1,26.0,30.07,SW,229,4.0,10.0,88,0.00,,---,0.00,VWS V13.01,2013-02-06 09:35:00,
2013-02-06 04:41:00,29.0,25.9,30.08,West,260,3.0,10.0,88,0.00,,---,0.00,VWS V13.01,2013-02-06 09:41:00,
2013-02-06 04:45:00,29.0,25.9,30.09,SW,236,7.0,10.0,88,0.00,,---,0.00,VWS V13.01,2013-02-06 09:45:00,
2013-02-06 04:50:00,29.0,25.9,30.09,WSW,246,3.0,10.0,88,0.00,,---,0.00,VWS V13.01,2013-02-06 09:50:00,
2013-02-06 04:55:00,29.1,26.0,30.10,West,263,3.0,10.0,88,0.00,,---,0.00,VWS V13.01,2013-02-06 09:55:00,
2013-02-06 05:00:00,29.0,25.9,30.11,WSW,246,5.0,7.0,88,0.00,,---,0.00,VWS V13.01,2013-02-06 10:00:00,
2013-02-06 05:05:00,29.0,25.9,30.12,WSW,254,6.0,8.0,88,0.00,,---,0.00,VWS V13.01,2013-02-06 10:05:00,
2013-02-06 05:10:00,29.0,25.6,30.12,WSW,248,3.0,11.0,87,0.00,,---,0.00,VWS V13.01,2013-02-06 10:10:00,
2013-02-06 05:15:00,29.0,25.6,30.12,WSW,244,9.0,11.0,87,0.00,,---,0.00,VWS V13.01,2013-02-06 10:15:00,
2013-02-06 05:20:00,29.0,25.4,30.12,SW,227,4.0,11.0,86,0.00,,---,0.00,VWS V13.01,2013-02-06 10:20:00,
2013-02-06 05:25:00,29.0,25.6,30.11,WSW,254,4.0,11.0,87,0.00,,---,0.00,VWS V13.01,2013-02-06 10:25:00,
2013-02-06 05:30:00,29.1,25.7,30.11,SW,223,5.0,5.0,87,0.00,,---,0.00,VWS V13.01,2013-02-06 10:30:00,
2013-02-06 05:35:00,29.0,25.6,30.11,SW,214,4.0,10.0,87,0.00,,---,0.00,VWS V13.01,2013-02-06 10:35:00,
2013-02-06 05:41:00,29.0,25.6,30.11,WSW,243,4.0,10.0,87,0.00,,---,0.00,VWS V13.01,2013-02-06 10:41:00,
2013-02-06 05:45:00,29.0,25.6,30.12,WSW,244,4.0,10.0,87,0.00,,---,0.00,VWS V13.01,2013-02-06 10:45:00,
2013-02-06 05:50:00,29.0,25.6,30.12,WSW,243,3.0,10.0,87,0.00,,---,0.00,VWS V13.01,2013-02-06 10:50:00,
2013-02-06 05:56:00,29.0,25.6,30.12,SW,236,4.0,10.0,87,0.00,,---,0.00,VWS V13.01,2013-02-06 10:56:00,
2013-02-06 06:01:00,28.9,25.5,30.12,SSW,209,3.0,6.0,87,0.00,,---,0.00,VWS V13.01,2013-02-06 11:01:00,
2013-02-06 06:06:00,28.9,25.5,30.12,SW,234,4.0,9.0,87,0.00,,---,0.00,VWS V13.01,2013-02-06 11:06:00,
2013-02-06 06:11:00,28.9,25.5,30.13,SW,226,3.0,10.0,87,0.00,,---,0.00,VWS V13.01,2013-02-06 11:11:00,
2013-02-06 06:16:00,28.9,25.5,30.13,WSW,237,5.0,10.0,87,0.00,,---,0.00,VWS V13.01,2013-02-06 11:16:00,
2013-02-06 06:21:00,28.9,25.5,30.13,SW,215,5.0,10.0,87,0.00,,---,0.00,VWS V13.01,2013-02-06 11:21:00,
2013-02-06 06:26:00,29.0,25.6,30.14,SW,225,5.0,10.0,87,0.00,,---,0.00,VWS V13.01,2013-02-06 11:26:00,
2013-02-06 06:31:00,29.0,25.6,30.14,SW,230,5.0,7.0,87,0.00,,---,0.00,VWS V13.01,2013-02-06 11:31:00,
2013-02-06 06:36:00,28.9,25.5,30.14,SW,230,4.0,8.0,87,0.00,,---,0.00,VWS V13.01,2013-02-06 11:36:00,
2013-02-06 06:41:00,29.0,25.9,30.15,SW,231,6.0,11.0,88,0.00,,---,0.00,VWS V13.01,2013-02-06 11:41:00,
2013-02-06 06:46:00,29.0,25.9,30.15,SW,234,4.0,11.0,88,0.00,,---,0.00,VWS V13.01,2013-02-06 11:46:00,
2013-02-06 06:51:00,29.0,25.9,30.16,West,266,5.0,11.0,88,0.00,,---,0.00,VWS V13.01,2013-02-06 11:51:00,
2013-02-06 06:56:00,29.1,26.0,30.16,SW,222,6.0,11.0,88,0.00,,---,0.00,VWS V13.01,2013-02-06 11:56:00,
2013-02-06 07:01:00,29.1,26.0,30.16,SW,232,2.0,5.0,88,0.00,,---,0.00,VWS V13.01,2013-02-06 12:01:00,
2013-02-06 07:06:00,29.2,26.1,30.17,WSW,254,9.0,13.0,88,0.00,,---,0.00,VWS V13.01,2013-02-06 12:06:00,
2013-02-06 07:11:00,29.2,26.1,30.17,WSW,257,5.0,13.0,88,0.00,,---,0.00,VWS V13.01,2013-02-06 12:11:00,
2013-02-06 07:16:00,29.2,26.1,30.17,West,275,5.0,13.0,88,0.00,,---,0.00,VWS V13.01,2013-02-06 12:16:00,
2013-02-06 07:21:00,29.1,26.0,30.17,West,264,6.0,13.0,88,0.00,,---,0.00,VWS V13.01,2013-02-06 12:21:00,
2013-02-06 07:26:00,29.1,26.0,30.17,WSW,239,5.0,13.0,88,0.00,,---,0.00,VWS V13.01,2013-02-06 12:26:00,
2013-02-06 07:31:00,29.1,26.3,30.17,WSW,250,7.0,7.0,89,0.00,,---,0.00,VWS V13.01,2013-02-06 12:31:00,
2013-02-06 07:36:00,29.0,26.2,30.17,West,259,4.0,9.0,89,0.00,,---,0.00,VWS V13.01,2013-02-06 12:36:00,
2013-02-06 07:41:00,29.0,26.2,30.17,West,261,4.0,9.0,89,0.00,,---,0.00,VWS V13.01,2013-02-06 12:41:00,
2013-02-06 07:46:00,29.0,26.2,30.17,WSW,253,4.0,9.0,89,0.00,,---,0.00,VWS V13.01,2013-02-06 12:46:00,
2013-02-06 07:51:00,29.0,26.2,30.17,WSW,249,4.0,10.0,89,0.00,,---,0.00,VWS V13.01,2013-02-06 12:51:00,
2013-02-06 07:56:00,29.0,26.2,30.18,WNW,283,4.0,10.0,89,0.00,,---,0.00,VWS V13.01,2013-02-06 12:56:00,
2013-02-06 08:01:00,29.0,26.2,30.18,West,263,1.0,5.0,89,0.00,,---,0.00,VWS V13.01,2013-02-06 13:01:00,
2013-02-06 08:06:00,29.0,26.2,30.19,WSW,250,4.0,7.0,89,0.00,,---,0.00,VWS V13.01,2013-02-06 13:06:00,
2013-02-06 08:11:00,29.1,26.3,30.19,West,263,5.0,7.0,89,0.00,,---,0.00,VWS V13.01,2013-02-06 13:11:00,
2013-02-06 08:16:00,29.1,26.3,30.19,WSW,244,6.0,8.0,89,0.00,,---,0.00,VWS V13.01,2013-02-06 13:16:00,
2013-02-06 08:21:00,29.1,26.3,30.19,WSW,247,3.0,8.0,89,0.00,,---,0.00,VWS V13.01,2013-02-06 13:21:00,
2013-02-06 08:26:00,29.2,26.4,30.19,WSW,240,7.0,9.0,89,0.00,,---,0.00,VWS V13.01,2013-02-06 13:26:00,
2013-02-06 08:31:00,29.2,26.4,30.19,WSW,243,2.0,6.0,89,0.00,,---,0.00,VWS V13.01,2013-02-06 13:31:00,
2013-02-06 08:36:00,29.2,26.4,30.19,SW,232,3.0,11.0,89,0.00,,---,0.00,VWS V13.01,2013-02-06 13:36:00,
2013-02-06 08:41:00,29.2,26.4,30.20,SW,234,2.0,11.0,89,0.00,,---,0.00,VWS V13.01,2013-02-06 13:41:00,
2013-02-06 08:46:00,29.3,26.2,30.20,WSW,252,5.0,11.0,88,0.00,,---,0.00,VWS V13.01,2013-02-06 13:46:00,
2013-02-06 08:51:00,29.3,26.2,30.21,WSW,252,2.0,11.0,88,0.00,,---,0.00,VWS V13.01,2013-02-06 13:51:00,
2013-02-06 08:56:00,29.4,26.3,30.21,West,269,2.0,11.0,88,0.00,,---,0.00,VWS V13.01,2013-02-06 13:56:00,
2013-02-06 09:01:00,29.4,26.3,30.21,WSW,247,1.0,6.0,88,0.00,,---,0.00,VWS V13.01,2013-02-06 14:01:00,
2013-02-06 09:06:00,29.5,26.4,30.21,WSW,250,5.0,9.0,88,0.00,,---,0.00,VWS V13.01,2013-02-06 14:06:00,
2013-02-06 09:11:00,29.5,26.4,30.21,WSW,250,6.0,9.0,88,0.00,,---,0.00,VWS V13.01,2013-02-06 14:11:00,
2013-02-06 09:16:00,29.6,26.5,30.21,WSW,248,3.0,9.0,88,0.00,,---,0.00,VWS V13.01,2013-02-06 14:16:00,
2013-02-06 09:21:00,29.6,26.5,30.22,WSW,256,4.0,9.0,88,0.00,,---,0.00,VWS V13.01,2013-02-06 14:21:00,
2013-02-06 09:26:00,29.6,26.5,30.22,WSW,246,1.0,9.0,88,0.00,,---,0.00,VWS V13.01,2013-02-06 14:26:00,
2013-02-06 09:31:00,29.7,26.6,30.22,WSW,246,2.0,6.0,88,0.00,,---,0.00,VWS V13.01,2013-02-06 14:31:00,
2013-02-06 09:36:00,29.7,26.6,30.22,WNW,284,3.0,9.0,88,0.00,,---,0.00,VWS V13.01,2013-02-06 14:36:00,
2013-02-06 09:41:00,29.7,26.3,30.23,SW,225,6.0,10.0,87,0.00,,---,0.00,VWS V13.01,2013-02-06 14:41:00,
2013-02-06 09:46:00,29.7,26.3,30.23,WSW,247,8.0,12.0,87,0.00,,---,0.00,VWS V13.01,2013-02-06 14:46:00,
2013-02-06 09:51:00,29.6,26.2,30.23,WSW,251,6.0,12.0,87,0.00,,---,0.00,VWS V13.01,2013-02-06 14:51:00,
2013-02-06 09:56:00,29.6,26.5,30.23,West,263,3.0,12.0,88,0.00,,---,0.00,VWS V13.01,2013-02-06 14:56:00,
2013-02-06 10:01:00,29.6,26.5,30.23,WSW,240,4.0,7.0,88,0.00,,---,0.00,VWS V13.01,2013-02-06 15:01:00,
2013-02-06 10:06:00,29.6,26.5,30.23,WSW,240,4.0,9.0,88,0.00,,---,0.00,VWS V13.01,2013-02-06 15:06:00,
2013-02-06 10:11:00,29.6,26.8,30.23,SW,221,3.0,9.0,89,0.00,,---,0.00,VWS V13.01,2013-02-06 15:11:00,
2013-02-06 10:16:00,29.7,26.9,30.23,WSW,248,3.0,9.0,89,0.00,,---,0.00,VWS V13.01,2013-02-06 15:16:00,
2013-02-06 10:21:00,29.8,26.7,30.23,West,260,5.0,9.0,88,0.00,,---,0.00,VWS V13.01,2013-02-06 15:21:00,
2013-02-06 10:26:00,30.1,27.0,30.23,WSW,247,6.0,10.0,88,0.00,,---,0.00,VWS V13.01,2013-02-06 15:26:00,
2013-02-06 10:31:00,30.2,26.8,30.23,SW,225,4.0,9.0,87,0.00,,---,0.00,VWS V13.01,2013-02-06 15:31:00,
2013-02-06 10:36:00,30.3,26.6,30.24,West,269,5.0,9.0,86,0.00,,---,0.00,VWS V13.01,2013-02-06 15:36:00,
2013-02-06 10:41:00,30.5,26.8,30.24,WNW,285,3.0,11.0,86,0.00,,---,0.00,VWS V13.01,2013-02-06 15:41:00,
2013-02-06 10:46:00,30.6,26.6,30.25,WNW,286,5.0,11.0,85,0.00,,---,0.00,VWS V13.01,2013-02-06 15:46:00,
2013-02-06 10:51:00,30.6,26.4,30.24,WSW,253,2.0,12.0,84,0.00,,---,0.00,VWS V13.01,2013-02-06 15:51:00,
2013-02-06 10:56:00,30.8,26.8,30.25,WSW,239,3.0,12.0,85,0.00,,---,0.00,VWS V13.01,2013-02-06 15:56:00,
2013-02-06 11:01:00,31.2,26.9,30.25,NW,307,9.0,9.0,84,0.00,,---,0.00,VWS V13.01,2013-02-06 16:01:00,
2013-02-06 11:06:00,31.4,26.5,30.25,SW,229,8.0,10.0,82,0.00,,---,0.00,VWS V13.01,2013-02-06 16:06:00,
2013-02-06 11:11:00,31.5,26.4,30.25,WNW,292,5.0,10.0,81,0.00,,---,0.00,VWS V13.01,2013-02-06 16:11:00,
2013-02-06 11:16:00,31.5,26.0,30.25,WNW,297,6.0,10.0,80,0.00,,---,0.00,VWS V13.01,2013-02-06 16:16:00,
2013-02-06 11:21:00,31.5,25.8,30.26,NW,320,6.0,12.0,79,0.00,,---,0.00,VWS V13.01,2013-02-06 16:21:00,
2013-02-06 11:26:00,31.6,25.5,30.26,NW,305,4.0,12.0,78,0.00,,---,0.00,VWS V13.01,2013-02-06 16:26:00,
2013-02-06 11:31:00,31.7,25.3,30.26,West,267,6.0,9.0,77,0.00,,---,0.00,VWS V13.01,2013-02-06 16:31:00,
2013-02-06 11:36:00,31.9,25.5,30.26,NW,316,4.0,10.0,77,0.00,,---,0.00,VWS V13.01,2013-02-06 16:36:00,
2013-02-06 11:41:00,32.0,25.0,30.26,West,275,4.0,10.0,75,0.00,,---,0.00,VWS V13.01,2013-02-06 16:41:00,
2013-02-06 11:46:00,32.2,25.2,30.26,West,273,5.0,10.0,75,0.00,,---,0.00,VWS V13.01,2013-02-06 16:46:00,
2013-02-06 11:51:00,32.4,25.4,30.26,WNW,287,3.0,10.0,75,0.00,,---,0.00,VWS V13.01,2013-02-06 16:51:00,
2013-02-06 11:56:00,32.3,25.0,30.26,West,259,2.0,11.0,74,0.00,,---,0.00,VWS V13.01,2013-02-06 16:56:00,
2013-02-06 12:01:00,32.2,24.5,30.26,WSW,254,6.0,8.0,73,0.00,,---,0.00,VWS V13.01,2013-02-06 17:01:00,
2013-02-06 12:06:00,32.2,24.5,30.26,WNW,298,2.0,11.0,73,0.00,,---,0.00,VWS V13.01,2013-02-06 17:06:00,
2013-02-06 12:11:00,32.1,24.8,30.26,NNW,345,10.0,14.0,74,0.00,,---,0.00,VWS V13.01,2013-02-06 17:11:00,
2013-02-06 12:16:00,31.2,24.2,30.26,NNW,333,3.0,14.0,75,0.00,,---,0.00,VWS V13.01,2013-02-06 17:16:00,
2013-02-06 12:21:00,30.8,24.1,30.26,North,350,5.0,14.0,76,0.00,,---,0.00,VWS V13.01,2013-02-06 17:21:00,
2013-02-06 12:26:00,30.5,23.9,30.26,NNW,328,8.0,14.0,76,0.00,,---,0.00,VWS V13.01,2013-02-06 17:26:00,
2013-02-06 12:31:00,30.3,24.0,30.26,NNW,338,6.0,8.0,77,0.00,,---,0.00,VWS V13.01,2013-02-06 17:31:00,
2013-02-06 12:36:00,30.3,23.7,30.26,NNW,327,1.0,8.0,76,0.00,,---,0.00,VWS V13.01,2013-02-06 17:36:00,
2013-02-06 12:41:00,30.6,24.3,30.26,WNW,293,2.0,8.0,77,0.00,,---,0.00,VWS V13.01,2013-02-06 17:41:00,
2013-02-06 12:46:00,30.7,23.7,30.26,NW,326,5.0,9.0,75,0.00,,---,0.00,VWS V13.01,2013-02-06 17:46:00,
2013-02-06 12:51:00,30.5,23.5,30.26,WNW,299,7.0,9.0,75,0.00,,---,0.00,VWS V13.01,2013-02-06 17:51:00,
2013-02-06 12:56:00,30.6,24.0,30.27,West,267,9.0,10.0,76,0.00,,---,0.00,VWS V13.01,2013-02-06 17:56:00,
2013-02-06 13:01:00,30.7,24.0,30.27,WNW,284,4.0,10.0,76,0.00,,---,0.00,VWS V13.01,2013-02-06 18:01:00,
2013-02-06 13:06:00,30.9,23.9,30.27,WNW,288,7.0,10.0,75,0.00,,---,0.00,VWS V13.01,2013-02-06 18:06:00,
2013-02-06 13:11:00,31.0,24.0,30.27,NW,310,3.0,10.0,75,0.00,,---,0.00,VWS V13.01,2013-02-06 18:11:00,
2013-02-06 13:16:00,31.3,24.0,30.26,West,277,4.0,10.0,74,0.00,,---,0.00,VWS V13.01,2013-02-06 18:16:00,
2013-02-06 13:21:00,31.4,24.1,30.27,WNW,294,4.0,10.0,74,0.00,,---,0.00,VWS V13.01,2013-02-06 18:21:00,
2013-02-06 13:26:00,31.5,23.9,30.26,West,280,0.0,10.0,73,0.00,,---,0.00,VWS V13.01,2013-02-06 18:26:00,
2013-02-06 13:31:00,31.9,24.2,30.27,NW,308,1.0,4.0,73,0.00,,---,0.00,VWS V13.01,2013-02-06 18:31:00,
2013-02-06 13:36:00,32.4,24.4,30.27,NW,312,6.0,7.0,72,0.00,,---,0.00,VWS V13.01,2013-02-06 18:36:00,
2013-02-06 13:41:00,32.1,24.1,30.27,NW,312,3.0,9.0,72,0.00,,---,0.00,VWS V13.01,2013-02-06 18:41:00,
2013-02-06 13:46:00,31.8,23.8,30.27,NNW,327,4.0,9.0,72,0.00,,---,0.00,VWS V13.01,2013-02-06 18:46:00,
2013-02-06 13:51:00,31.5,23.2,30.28,NNW,347,4.0,9.0,71,0.00,,---,0.00,VWS V13.01,2013-02-06 18:51:00,
2013-02-06 13:56:00,31.6,23.6,30.28,NW,319,8.0,11.0,72,0.00,,---,0.00,VWS V13.01,2013-02-06 18:56:00,
2013-02-06 14:01:00,31.7,23.4,30.28,NW,317,1.0,3.0,71,0.00,,---,0.00,VWS V13.01,2013-02-06 19:01:00,
2013-02-06 14:06:00,32.1,23.1,30.28,WSW,240,9.0,11.0,69,0.00,,---,0.00,VWS V13.01,2013-02-06 19:06:00,
2013-02-06 14:11:00,32.2,22.8,30.28,NW,307,2.0,11.0,68,0.00,,---,0.00,VWS V13.01,2013-02-06 19:11:00,
2013-02-06 14:16:00,32.1,22.4,30.28,NW,313,4.0,11.0,67,0.00,,---,0.00,VWS V13.01,2013-02-06 19:16:00,
2013-02-06 14:21:00,32.1,22.4,30.28,West,271,4.0,11.0,67,0.00,,---,0.00,VWS V13.01,2013-02-06 19:21:00,
2013-02-06 14:26:00,32.4,22.7,30.27,NW,310,6.0,11.0,67,0.00,,---,0.00,VWS V13.01,2013-02-06 19:26:00,
2013-02-06 14:31:00,32.5,22.4,30.28,NW,317,5.0,9.0,66,0.00,,---,0.00,VWS V13.01,2013-02-06 19:31:00,
2013-02-06 14:36:00,32.2,21.8,30.28,SW,233,5.0,10.0,65,0.00,,---,0.00,VWS V13.01,2013-02-06 19:36:00,
2013-02-06 14:41:00,32.2,21.4,30.28,West,266,3.0,11.0,64,0.00,,---,0.00,VWS V13.01,2013-02-06 19:41:00,
2013-02-06 14:46:00,32.4,21.2,30.28,West,273,4.0,11.0,63,0.00,,---,0.00,VWS V13.01,2013-02-06 19:46:00,
2013-02-06 14:51:00,32.4,21.6,30.28,WNW,294,2.0,12.0,64,0.00,,---,0.00,VWS V13.01,2013-02-06 19:51:00,
2013-02-06 14:56:00,32.3,21.9,30.29,WNW,290,3.0,12.0,65,0.00,,---,0.00,VWS V13.01,2013-02-06 19:56:00,
2013-02-06 15:01:00,32.3,21.9,30.29,NNW,345,4.0,7.0,65,0.00,,---,0.00,VWS V13.01,2013-02-06 20:01:00,
2013-02-06 15:06:00,32.1,21.7,30.29,NW,319,5.0,8.0,65,0.00,,---,0.00,VWS V13.01,2013-02-06 20:06:00,
2013-02-06 15:11:00,32.0,21.9,30.30,NW,323,2.0,9.0,66,0.00,,---,0.00,VWS V13.01,2013-02-06 20:11:00,
2013-02-06 15:16:00,32.0,21.9,30.30,WNW,288,5.0,9.0,66,0.00,,---,0.00,VWS V13.01,2013-02-06 20:16:00,
2013-02-06 15:21:00,32.2,22.1,30.30,West,263,4.0,9.0,66,0.00,,---,0.00,VWS V13.01,2013-02-06 20:21:00,
2013-02-06 15:26:00,32.1,21.7,30.31,West,272,3.0,10.0,65,0.00,,---,0.00,VWS V13.01,2013-02-06 20:26:00,
2013-02-06 15:31:00,31.9,21.1,30.31,WSW,253,6.0,9.0,64,0.00,,---,0.00,VWS V13.01,2013-02-06 20:31:00,
2013-02-06 15:36:00,31.7,20.9,30.31,West,269,7.0,12.0,64,0.00,,---,0.00,VWS V13.01,2013-02-06 20:36:00,
2013-02-06 15:41:00,31.6,20.8,30.31,West,277,4.0,12.0,64,0.00,,---,0.00,VWS V13.01,2013-02-06 20:41:00,
2013-02-06 15:46:00,31.6,21.2,30.31,WSW,258,3.0,12.0,65,0.00,,---,0.00,VWS V13.01,2013-02-06 20:46:00,
2013-02-06 15:51:00,31.7,21.3,30.31,WSW,242,4.0,12.0,65,0.00,,---,0.00,VWS V13.01,2013-02-06 20:51:00,
2013-02-06 15:56:00,31.7,20.6,30.31,WNW,287,3.0,13.0,63,0.00,,---,0.00,VWS V13.01,2013-02-06 20:56:00,
2013-02-06 16:01:00,31.5,20.4,30.31,West,272,5.0,7.0,63,0.00,,---,0.00,VWS V13.01,2013-02-06 21:01:00,
2013-02-06 16:06:00,31.5,20.4,30.31,West,270,2.0,8.0,63,0.00,,---,0.00,VWS V13.01,2013-02-06 21:06:00,
2013-02-06 16:11:00,31.6,20.5,30.31,WNW,288,2.0,9.0,63,0.00,,---,0.00,VWS V13.01,2013-02-06 21:11:00,
2013-02-06 16:16:00,31.8,20.3,30.32,WNW,294,7.0,9.0,62,0.00,,---,0.00,VWS V13.01,2013-02-06 21:16:00,
2013-02-06 16:21:00,31.5,20.4,30.32,West,265,4.0,9.0,63,0.00,,---,0.00,VWS V13.01,2013-02-06 21:21:00,
2013-02-06 16:26:00,31.4,20.3,30.32,NW,304,2.0,9.0,63,0.00,,---,0.00,VWS V13.01,2013-02-06 21:26:00,
2013-02-06 16:31:00,31.2,20.1,30.32,WSW,247,1.0,7.0,63,0.00,,---,0.00,VWS V13.01,2013-02-06 21:31:00,
2013-02-06 16:36:00,31.5,20.7,30.32,West,281,1.0,7.0,64,0.00,,---,0.00,VWS V13.01,2013-02-06 21:36:00,
2013-02-06 16:41:00,32.0,20.5,30.31,West,271,2.0,7.0,62,0.00,,---,0.00,VWS V13.01,2013-02-06 21:41:00,
2013-02-06 16:46:00,32.0,20.5,30.31,WSW,253,2.0,7.0,62,0.00,,---,0.00,VWS V13.01,2013-02-06 21:46:00,
2013-02-06 16:51:00,32.1,20.2,30.32,West,265,3.0,7.0,61,0.00,,---,0.00,VWS V13.01,2013-02-06 21:51:00,
2013-02-06 16:56:00,31.9,20.0,30.32,WSW,250,8.0,10.0,61,0.00,,---,0.00,VWS V13.01,2013-02-06 21:56:00,
2013-02-06 17:01:00,31.5,20.0,30.32,WSW,248,3.0,5.0,62,0.00,,---,0.00,VWS V13.01,2013-02-06 22:01:00,
2013-02-06 17:06:00,31.1,19.6,30.32,NW,304,3.0,5.0,62,0.00,,---,0.00,VWS V13.01,2013-02-06 22:06:00,
2013-02-06 17:11:00,30.7,19.6,30.32,West,259,2.0,6.0,63,0.00,,---,0.00,VWS V13.01,2013-02-06 22:11:00,
2013-02-06 17:16:00,30.4,19.7,30.32,WNW,292,3.0,7.0,64,0.00,,---,0.00,VWS V13.01,2013-02-06 22:16:00,
2013-02-06 17:21:00,30.2,19.5,30.32,WNW,285,1.0,7.0,64,0.00,,---,0.00,VWS V13.01,2013-02-06 22:21:00,
2013-02-06 17:26:00,29.9,19.6,30.33,West,269,5.0,7.0,65,0.00,,---,0.00,VWS V13.01,2013-02-06 22:26:00,
2013-02-06 17:31:00,29.8,19.8,30.33,WNW,286,0.0,3.0,66,0.00,,---,0.00,VWS V13.01,2013-02-06 22:31:00,
2013-02-06 17:36:00,29.6,19.6,30.33,WSW,252,3.0,4.0,66,0.00,,---,0.00,VWS V13.01,2013-02-06 22:36:00,
2013-02-06 17:41:00,29.3,19.4,30.33,WNW,286,1.0,4.0,66,0.00,,---,0.00,VWS V13.01,2013-02-06 22:41:00,
2013-02-06 17:46:00,29.0,19.4,30.33,WSW,243,1.0,4.0,67,0.00,,---,0.00,VWS V13.01,2013-02-06 22:46:00,
2013-02-06 17:51:00,28.8,19.6,30.34,WSW,245,1.0,4.0,68,0.00,,---,0.00,VWS V13.01,2013-02-06 22:51:00,
2013-02-06 17:56:00,28.5,19.3,30.33,West,273,1.0,4.0,68,0.00,,---,0.00,VWS V13.01,2013-02-06 22:56:00,
2013-02-06 18:01:00,28.3,19.5,30.33,West,273,0.0,2.0,69,0.00,,---,0.00,VWS V13.01,2013-02-06 23:01:00,
2013-02-06 18:06:00,28.1,19.3,30.33,West,273,0.0,2.0,69,0.00,,---,0.00,VWS V13.01,2013-02-06 23:06:00,
2013-02-06 18:11:00,27.8,19.0,30.33,West,273,0.0,2.0,69,0.00,,---,0.00,VWS V13.01,2013-02-06 23:11:00,
2013-02-06 18:16:00,27.5,19.0,30.33,West,273,0.0,2.0,70,0.00,,---,0.00,VWS V13.01,2013-02-06 23:16:00,
2013-02-06 18:21:00,27.1,19.0,30.33,West,273,0.0,2.0,71,0.00,,---,0.00,VWS V13.01,2013-02-06 23:21:00,
2013-02-06 18:26:00,26.8,19.0,30.33,West,273,0.0,2.0,72,0.00,,---,0.00,VWS V13.01,2013-02-06 23:26:00,
2013-02-06 18:31:00,26.3,18.8,30.34,West,273,0.0,0.0,73,0.00,,---,0.00,VWS V13.01,2013-02-06 23:31:00,
2013-02-06 18:36:00,26.1,18.6,30.34,West,273,0.0,0.0,73,0.00,,---,0.00,VWS V13.01,2013-02-06 23:36:00,
2013-02-06 18:41:00,25.8,18.7,30.34,West,273,0.0,0.0,74,0.00,,---,0.00,VWS V13.01,2013-02-06 23:41:00,
2013-02-06 18:46:00,25.6,18.8,30.34,West,273,0.0,0.0,75,0.00,,---,0.00,VWS V13.01,2013-02-06 23:46:00,
2013-02-06 18:51:00,25.5,18.7,30.34,West,273,0.0,0.0,75,0.00,,---,0.00,VWS V13.01,2013-02-06 23:51:00,
2013-02-06 18:56:00,25.3,18.8,30.34,West,273,0.0,0.0,76,0.00,,---,0.00,VWS V13.01,2013-02-06 23:56:00,
2013-02-06 19:01:00,25.0,18.2,30.35,West,273,0.0,0.0,75,0.00,,---,0.00,VWS V13.01,2013-02-07 00:01:00,
2013-02-06 19:06:00,24.6,18.1,30.35,West,273,0.0,0.0,76,0.00,,---,0.00,VWS V13.01,2013-02-07 00:06:00,
2013-02-06 19:11:00,24.2,18.0,30.35,West,273,0.0,0.0,77,0.00,,---,0.00,VWS V13.01,2013-02-07 00:11:00,
2013-02-06 19:16:00,23.8,17.7,30.35,West,273,0.0,0.0,77,0.00,,---,0.00,VWS V13.01,2013-02-07 00:16:00,
2013-02-06 19:21:00,23.4,17.6,30.35,West,273,0.0,0.0,78,0.00,,---,0.00,VWS V13.01,2013-02-07 00:21:00,
2013-02-06 19:26:00,23.1,17.6,30.35,West,273,0.0,0.0,79,0.00,,---,0.00,VWS V13.01,2013-02-07 00:26:00,
2013-02-06 19:31:00,22.9,17.4,30.35,West,273,0.0,0.0,79,0.00,,---,0.00,VWS V13.01,2013-02-07 00:31:00,
2013-02-06 19:36:00,22.8,17.9,30.35,West,273,1.0,1.0,81,0.00,,---,0.00,VWS V13.01,2013-02-07 00:36:00,
2013-02-06 19:41:00,22.6,17.4,30.35,West,273,0.0,1.0,80,0.00,,---,0.00,VWS V13.01,2013-02-07 00:41:00,
2013-02-06 19:46:00,22.5,17.3,30.35,West,273,0.0,2.0,80,0.00,,---,0.00,VWS V13.01,2013-02-07 00:46:00,
2013-02-06 19:51:00,22.2,17.3,30.36,West,273,0.0,2.0,81,0.00,,---,0.00,VWS V13.01,2013-02-07 00:51:00,
2013-02-06 19:56:00,22.1,17.2,30.36,West,273,0.0,2.0,81,0.00,,---,0.00,VWS V13.01,2013-02-07 00:56:00,
2013-02-06 20:01:00,21.8,16.9,30.36,West,273,1.0,1.0,81,0.00,,---,0.00,VWS V13.01,2013-02-07 01:01:00,
2013-02-06 20:06:00,21.6,17.2,30.37,West,273,0.0,1.0,83,0.00,,---,0.00,VWS V13.01,2013-02-07 01:06:00,
2013-02-06 20:11:00,21.5,17.4,30.37,SSW,207,0.0,2.0,84,0.00,,---,0.00,VWS V13.01,2013-02-07 01:11:00,
2013-02-06 20:16:00,21.4,17.3,30.37,SSW,198,0.0,2.0,84,0.00,,---,0.00,VWS V13.01,2013-02-07 01:16:00,
2013-02-06 20:21:00,21.3,17.2,30.36,SSW,198,0.0,2.0,84,0.00,,---,0.00,VWS V13.01,2013-02-07 01:21:00,
2013-02-06 20:26:00,21.2,17.4,30.36,SSW,198,1.0,3.0,85,0.00,,---,0.00,VWS V13.01,2013-02-07 01:26:00,
2013-02-06 20:31:00,21.2,17.4,30.36,SSW,198,2.0,3.0,85,0.00,,---,0.00,VWS V13.01,2013-02-07 01:31:00,
2013-02-06 20:36:00,21.3,17.5,30.36,SSW,201,0.0,3.0,85,0.00,,---,0.00,VWS V13.01,2013-02-07 01:36:00,
2013-02-06 20:41:00,21.2,17.4,30.36,SSW,201,1.0,3.0,85,0.00,,---,0.00,VWS V13.01,2013-02-07 01:41:00,
2013-02-06 20:46:00,21.0,17.2,30.36,SSW,201,0.0,3.0,85,0.00,,---,0.00,VWS V13.01,2013-02-07 01:46:00,
2013-02-06 20:51:00,20.8,17.0,30.36,SSW,201,0.0,3.0,85,0.00,,---,0.00,VWS V13.01,2013-02-07 01:51:00,
2013-02-06 20:56:00,20.5,16.4,30.36,SSW,201,0.0,3.0,84,0.00,,---,0.00,VWS V13.01,2013-02-07 01:56:00,
2013-02-06 21:01:00,20.2,16.1,30.36,SSW,201,0.0,0.0,84,0.00,,---,0.00,VWS V13.01,2013-02-07 02:01:00,
2013-02-06 21:06:00,19.8,16.0,30.37,SSW,201,0.0,1.0,85,0.00,,---,0.00,VWS V13.01,2013-02-07 02:06:00,
2013-02-06 21:11:00,19.7,16.2,30.38,SSW,201,0.0,1.0,86,0.00,,---,0.00,VWS V13.01,2013-02-07 02:11:00,
2013-02-06 21:16:00,19.5,16.0,30.39,SSW,201,0.0,1.0,86,0.00,,---,0.00,VWS V13.01,2013-02-07 02:16:00,
2013-02-06 21:21:00,19.3,16.1,30.39,SSW,201,1.0,1.0,87,0.00,,---,0.00,VWS V13.01,2013-02-07 02:21:00,
2013-02-06 21:26:00,19.2,16.0,30.39,SSW,200,1.0,1.0,87,0.00,,---,0.00,VWS V13.01,2013-02-07 02:26:00,
2013-02-06 21:31:00,19.2,16.0,30.39,SSW,199,1.0,2.0,87,0.00,,---,0.00,VWS V13.01,2013-02-07 02:31:00,
2013-02-06 21:36:00,19.2,16.2,30.39,SSW,199,0.0,2.0,88,0.00,,---,0.00,VWS V13.01,2013-02-07 02:36:00,
2013-02-06 21:41:00,19.3,16.3,30.39,SSW,199,0.0,2.0,88,0.00,,---,0.00,VWS V13.01,2013-02-07 02:41:00,
2013-02-06 21:46:00,19.1,15.9,30.39,SSW,199,0.0,2.0,87,0.00,,---,0.00,VWS V13.01,2013-02-07 02:46:00,
2013-02-06 21:51:00,18.8,15.6,30.39,SSW,199,0.0,2.0,87,0.00,,---,0.00,VWS V13.01,2013-02-07 02:51:00,
2013-02-06 21:56:00,18.6,15.4,30.39,SSW,199,0.0,2.0,87,0.00,,---,0.00,VWS V13.01,2013-02-07 02:56:00,
2013-02-06 22:01:00,18.5,15.3,30.39,SSW,199,0.0,0.0,87,0.00,,---,0.00,VWS V13.01,2013-02-07 03:01:00,
2013-02-06 22:06:00,18.3,15.4,30.39,SSW,199,0.0,0.0,88,0.00,,---,0.00,VWS V13.01,2013-02-07 03:06:00,
2013-02-06 22:11:00,18.1,15.1,30.38,SSW,199,0.0,0.0,88,0.00,,---,0.00,VWS V13.01,2013-02-07 03:11:00,
2013-02-06 22:16:00,17.9,14.9,30.38,SSW,199,0.0,0.0,88,0.00,,---,0.00,VWS V13.01,2013-02-07 03:16:00,
2013-02-06 22:21:00,17.6,14.7,30.38,SSW,199,0.0,0.0,88,0.00,,---,0.00,VWS V13.01,2013-02-07 03:21:00,
2013-02-06 22:26:00,17.4,14.2,30.38,SSW,199,0.0,0.0,87,0.00,,---,0.00,VWS V13.01,2013-02-07 03:26:00,
2013-02-06 22:31:00,17.1,14.2,30.38,SSW,199,0.0,0.0,88,0.00,,---,0.00,VWS V13.01,2013-02-07 03:31:00,
2013-02-06 22:36:00,17.1,14.4,30.38,SSW,199,0.0,0.0,89,0.00,,---,0.00,VWS V13.01,2013-02-07 03:36:00,
2013-02-06 22:41:00,17.2,14.5,30.38,SSW,199,0.0,0.0,89,0.00,,---,0.00,VWS V13.01,2013-02-07 03:41:00,
2013-02-06 22:46:00,17.2,14.8,30.37,SSW,199,0.0,0.0,90,0.00,,---,0.00,VWS V13.01,2013-02-07 03:46:00,
2013-02-06 22:51:00,17.2,14.8,30.37,SSW,199,0.0,0.0,90,0.00,,---,0.00,VWS V13.01,2013-02-07 03:51:00,
2013-02-06 22:56:00,17.2,14.8,30.36,SSW,199,0.0,0.0,90,0.00,,---,0.00,VWS V13.01,2013-02-07 03:56:00,
2013-02-06 23:01:00,17.1,14.7,30.36,SSW,199,0.0,1.0,90,0.00,,---,0.00,VWS V13.01,2013-02-07 04:01:00,
2013-02-06 23:06:00,16.9,14.5,30.36,SSW,199,0.0,1.0,90,0.00,,---,0.00,VWS V13.01,2013-02-07 04:06:00,
2013-02-06 23:11:00,16.7,14.0,30.36,SSW,199,0.0,1.0,89,0.00,,---,0.00,VWS V13.01,2013-02-07 04:11:00,
2013-02-06 23:16:00,16.6,13.9,30.36,SSW,201,0.0,1.0,89,0.00,,---,0.00,VWS V13.01,2013-02-07 04:16:00,
2013-02-06 23:21:00,16.5,14.1,30.35,SSW,201,1.0,1.0,90,0.00,,---,0.00,VWS V13.01,2013-02-07 04:21:00,
2013-02-06 23:26:00,16.4,14.0,30.35,SSW,208,0.0,2.0,90,0.00,,---,0.00,VWS V13.01,2013-02-07 04:26:00,
2013-02-06 23:31:00,16.3,13.9,30.36,SSW,208,0.0,0.0,90,0.00,,---,0.00,VWS V13.01,2013-02-07 04:31:00,
2013-02-06 23:36:00,16.3,13.9,30.35,SSW,208,0.0,0.0,90,0.00,,---,0.00,VWS V13.01,2013-02-07 04:36:00,
2013-02-06 23:41:00,16.2,13.8,30.35,SSE,153,1.0,2.0,90,0.00,,---,0.00,VWS V13.01,2013-02-07 04:41:00,
2013-02-06 23:46:00,16.5,14.3,30.33,East,80,0.0,5.0,91,0.00,,---,0.00,VWS V13.01,2013-02-07 04:46:00,
2013-02-06 23:51:00,16.9,14.7,30.34,ESE,108,1.0,5.0,91,0.00,,---,0.00,VWS V13.01,2013-02-07 04:51:00,
2013-02-06 23:56:00,17.1,14.9,30.34,East,82,1.0,5.0,91,0.00,,---,0.00,VWS V13.01,2013-02-07 04:56:00,